Location: Newark
(34.0131°N, 4.3314°W)
Time: 20:25:59
(UTC+00:00)

Explorer 7 - All Passes

Search period start: 13 October 2019 00:00
Search period end: 23 October 2019 00:00
Orbit: 485 x 680 km, 50.3° (Epoch: 13 October)

Date Brightness Start Highest point End Pass type
(mag) Time Alt. Az. Time Alt. Az. Time Alt. Az.
13 Oct - 12:43:20 10° SSW 12:46:45 35° SE 12:50:13 10° ENE daylight
13 Oct - 14:24:02 10° W 14:27:15 26° NNW 14:30:34 10° NNE daylight
13 Oct - 19:29:20 10° NNW 19:32:52 25° NNE 19:36:33 10° E visible
13 Oct - 21:09:21 10° WNW 21:13:35 53° SW 21:18:04 10° SSE visible
14 Oct - 12:47:57 10° SW 12:51:40 68° SE 12:55:26 10° NE daylight
14 Oct - 14:29:50 10° WNW 14:32:29 18° NNW 14:35:11 10° NNE daylight
14 Oct - 17:55:28 10° N 17:56:34 11° NNE 17:57:41 10° NNE daylight
14 Oct - 19:34:05 10° NW 19:38:00 37° NE 19:42:09 10° ESE visible
14 Oct - 21:14:39 10° WNW 21:18:29 30° SW 21:22:30 10° SSE visible
15 Oct - 11:15:06 10° SSE 11:16:37 12° SE 11:18:07 10° ESE daylight
15 Oct - 12:52:56 10° WSW 12:56:39 63° NW 13:00:25 10° NE daylight
15 Oct - 14:35:59 10° NW 14:37:47 13° NNW 14:39:36 10° N daylight
15 Oct - 17:59:42 10° N 18:01:55 14° NNE 18:04:13 10° NE daylight
15 Oct - 19:38:55 10° NW 19:43:04 61° NE 19:47:29 10° ESE visible
15 Oct - 21:20:25 10° W 21:23:20 17° SW 21:26:21 10° S visible
16 Oct - 11:18:25 10° S 11:21:25 23° SE 11:24:25 10° ENE daylight
16 Oct - 12:58:15 10° WSW 13:01:43 35° NW 13:05:14 10° NNE daylight
16 Oct - 18:04:13 10° NNW 18:07:12 19° NNE 18:10:18 10° ENE visible
16 Oct - 19:43:52 10° NW 19:48:04 78° SW 19:52:32 10° SE visible
17 Oct - 11:22:42 10° SSW 11:26:17 43° SE 11:29:51 10° ENE daylight
17 Oct - 13:03:51 10° W 13:06:52 23° NNW 13:09:56 10° NNE daylight
17 Oct - 18:08:52 10° NNW 18:12:23 27° NNE 18:16:05 10° E visible
17 Oct - 19:49:00 10° WNW 19:53:00 43° SW 19:57:14 10° SSE visible
18 Oct - 11:27:28 10° SW 11:31:13 85° SE 11:34:59 10° NE daylight
18 Oct - 13:09:45 10° WNW 13:12:06 16° NNW 13:14:29 10° NNE daylight
18 Oct - 16:34:57 10° N 16:36:11 11° NNE 16:37:26 10° NE daylight
18 Oct - 18:13:37 10° NW 18:17:30 42° NE 18:21:37 10° ESE visible
18 Oct - 19:54:26 10° WNW 19:57:53 24° SW 20:01:30 10° S visible
19 Oct - 09:53:50 10° SSE 09:56:04 15° SE 09:58:18 10° E daylight
19 Oct - 11:32:33 10° WSW 11:36:13 51° NW 11:39:53 10° NE daylight
19 Oct - 13:16:07 10° NW 13:17:26 11° NNW 13:18:44 10° N daylight
19 Oct - 16:39:12 10° NNW 16:41:31 15° NNE 16:43:53 10° ENE daylight
19 Oct - 18:18:28 10° NW 18:22:32 73° NE 18:26:52 10° SE visible
19 Oct - 20:00:32 10° W 20:02:43 14° SW 20:04:57 10° SSW visible
20 Oct - 09:57:36 10° SSW 10:00:54 28° SE 10:04:10 10° ENE daylight
20 Oct - 11:37:57 10° W 11:41:18 30° NNW 11:44:40 10° NNE daylight
20 Oct - 16:43:44 10° NNW 16:46:45 20° NNE 16:49:54 10° ENE daylight
20 Oct - 18:23:29 10° NW 18:27:30 64° SW 18:31:48 10° SE visible
21 Oct - 10:02:04 10° SSW 10:05:47 54° SE 10:09:27 10° ENE daylight
21 Oct - 11:43:39 10° WNW 11:46:29 20° NNW 11:49:18 10° NNE daylight
21 Oct - 16:48:23 10° NNW 16:51:55 30° NNE 16:55:38 10° E daylight
21 Oct - 18:28:42 10° WNW 18:32:25 35° SW 18:36:21 10° SSE visible
22 Oct - 10:06:56 10° SW 10:10:45 78° NW 10:14:30 10° NE daylight
22 Oct - 11:49:41 10° WNW 11:51:43 14° NNW 11:53:46 10° N daylight
22 Oct - 15:14:23 10° N 15:15:47 12° NNE 15:17:14 10° NE daylight
22 Oct - 16:53:09 10° NW 16:57:00 49° NE 17:01:04 10° ESE daylight
22 Oct - 18:34:18 10° W 18:37:17 20° SW 18:40:23 10° S visible
